| time (UTC) | temp F | wind direction | speed knots | gust knots | rain 1hr in | rain 24hr in | rain mn in | humidity % | barometer mb |
| 20260510104619 | 0 | 0.0 | 0.0 | 0.00 | 0.00 | 0.00 | 1013.1 | ||
| 20260510103100 | 0 | 0.0 | 0.0 | 0.00 | 0.00 | 0.00 | 1012.7 | ||
| 20260510101551 | 0 | 0.0 | 0.0 | 0.00 | 0.00 | 0.00 | 1012.6 | ||
| 20260510100054 | 0 | 0.0 | 0.0 | 0.00 | 0.00 | 0.00 | 1012.7 | ||
| 20260510094547 | 45 | 153 | 0.0 | 0.0 | 0.00 | 0.00 | 0.00 | 94 | 1012.5 |
| 20260510093041 | 46 | 153 | 0.0 | 0.0 | 0.00 | 0.00 | 0.00 | 94 | 1012.2 |
| 20260510091538 | 46 | 154 | 0.0 | 0.0 | 0.00 | 0.00 | 0.00 | 94 | 1012.0 |
| 20260510090036 | 46 | 153 | 0.0 | 0.0 | 0.00 | 0.00 | 0.00 | 94 | 1011.7 |
| 20260510084539 | 47 | 153 | 0.0 | 0.0 | 0.00 | 0.00 | 0.00 | 93 | 1011.1 |
| 20260510083037 | 47 | 153 | 0.0 | 0.0 | 0.00 | 0.00 | 0.00 | 93 | 1011.3 |
| 20260510081528 | 48 | 153 | 0.0 | 0.0 | 0.00 | 0.00 | 0.00 | 94 | 1011.4 |
| 20260510080029 | 49 | 153 | 0.0 | 0.9 | 0.00 | 0.00 | 0.00 | 93 | 1011.1 |
| 20260510074521 | 50 | 153 | 0.0 | 0.0 | 0.00 | 0.00 | 0.00 | 94 | 1010.7 |
| 20260510073018 | 50 | 153 | 0.0 | 0.9 | 0.00 | 0.00 | 0.00 | 94 | 1010.4 |
| 20260510071515 | 51 | 153 | 0.0 | 1.7 | 0.00 | 0.00 | 0.00 | 94 | 1010.2 |
| 20260510070023 | 52 | 153 | 0.0 | 3.5 | 0.00 | 0.03 | 0.00 | 95 | 1009.9 |
| 20260510064513 | 52 | 153 | 0.0 | 2.6 | 0.00 | 0.03 | 0.00 | 95 | 1009.7 |
| 20260510063012 | 51 | 153 | 0.0 | 0.0 | 0.00 | 0.03 | 0.00 | 95 | 1009.6 |
| 20260510061507 | 51 | 153 | 0.0 | 0.0 | 0.00 | 0.03 | 0.00 | 94 | 1009.4 |
| 20260510060006 | 52 | 153 | 0.0 | 0.0 | 0.00 | 0.13 | 0.00 | 95 | 1009.4 |
| 20260510054508 | 52 | 153 | 0.0 | 2.6 | 0.00 | 0.13 | 0.00 | 95 | 1009.4 |
| 20260510053003 | 52 | 153 | 0.0 | 0.0 | 0.00 | 0.13 | 0.00 | 95 | 1009.0 |
| 20260510051606 | 52 | 153 | 0.0 | 0.0 | 0.00 | 0.13 | 0.00 | 94 | 1008.9 |
| 20260510051501 | 52 | 153 | 0.0 | 0.0 | 0.00 | 0.13 | 0.00 | 94 | 1008.8 |
| 20260510050100 | 52 | 153 | 0.0 | 0.0 | 0.00 | 0.17 | 0.00 | 94 | 1008.3 |
| 20260510044557 | 52 | 153 | 0.0 | 0.0 | 0.00 | 0.17 | 0.00 | 94 | 1008.2 |
| 20260510043101 | 53 | 153 | 0.0 | 0.0 | 0.00 | 0.17 | 0.00 | 94 | 1008.3 |
| 20260510041608 | 53 | 153 | 0.0 | 0.0 | 0.00 | 0.17 | 0.00 | 94 | 1008.3 |
| 20260510040049 | 54 | 153 | 0.0 | 0.0 | 0.00 | 0.19 | 0.17 | 94 | 1008.3 |
| 20260510034550 | 54 | 153 | 0.0 | 0.9 | 0.00 | 0.19 | 0.17 | 94 | 1008.5 |
| 20260510033049 | 54 | 153 | 0.0 | 2.6 | 0.00 | 0.19 | 0.17 | 94 | 1008.8 |
| 20260510031546 | 54 | 153 | 0.0 | 0.0 | 0.00 | 0.19 | 0.17 | 94 | 1008.0 |
| 20260510030050 | 54 | 153 | 0.0 | 0.0 | 0.00 | 0.23 | 0.17 | 94 | 1008.4 |
| 20260510024554 | 54 | 153 | 0.0 | 0.0 | 0.00 | 0.23 | 0.17 | 94 | 1008.3 |
| 20260510023047 | 54 | 153 | 0.0 | 4.3 | 0.00 | 0.23 | 0.17 | 94 | 1008.6 |
| 20260510021545 | 53 | 153 | 0.0 | 0.0 | 0.00 | 0.23 | 0.17 | 94 | 1007.5 |
| 20260510020050 | 53 | 153 | 0.0 | 0.0 | 0.00 | 0.27 | 0.17 | 94 | 1007.5 |
| 20260510014544 | 53 | 153 | 0.0 | 0.0 | 0.00 | 0.27 | 0.17 | 93 | 1007.3 |
| 20260510013048 | 53 | 153 | 0.0 | 0.0 | 0.00 | 0.27 | 0.17 | 93 | 1007.3 |
| 20260510011542 | 54 | 153 | 0.0 | 0.0 | 0.00 | 0.27 | 0.17 | 93 | 1006.8 |
| 20260510010058 | 54 | 153 | 0.0 | 0.0 | 0.00 | 0.34 | 0.17 | 92 | 1007.1 |
| 20260510004541 | 54 | 153 | 0.0 | 0.0 | 0.00 | 0.34 | 0.17 | 91 | 1006.9 |
| 20260510003041 | 54 | 153 | 0.0 | 1.7 | 0.00 | 0.34 | 0.17 | 91 | 1007.0 |
| 20260510001540 | 55 | 153 | 0.0 | 1.7 | 0.00 | 0.34 | 0.17 | 90 | 1006.8 |
| 20260510000042 | 55 | 153 | 0.9 | 6.1 | 0.00 | 0.38 | 0.17 | 89 | 1007.2 |
| 20260509234557 | 56 | 153 | 1.7 | 8.7 | 0.00 | 0.38 | 0.17 | 87 | 1007.0 |
| 20260509233039 | 58 | 153 | 2.6 | 7.8 | 0.00 | 0.38 | 0.17 | 83 | 1006.4 |
| 20260509231538 | 67 | 153 | 0.9 | 4.3 | 0.00 | 0.38 | 0.17 | 66 | 1005.8 |
| 20260509230037 | 67 | 153 | 0.0 | 4.3 | 0.00 | 0.40 | 0.17 | 62 | 1004.7 |
| 20260509224537 | 68 | 153 | 0.9 | 4.3 | 0.00 | 0.40 | 0.17 | 62 | 1004.6 |
| 20260509223036 | 68 | 153 | 0.9 | 3.5 | 0.00 | 0.40 | 0.17 | 62 | 1004.5 |
| 20260509221559 | 68 | 153 | 0.9 | 3.5 | 0.00 | 0.40 | 0.17 | 61 | 1004.5 |
| 20260509220035 | 69 | 153 | 0.9 | 3.5 | 0.00 | 0.40 | 0.17 | 60 | 1004.5 |
| 20260509214536 | 69 | 153 | 0.9 | 3.5 | 0.00 | 0.40 | 0.17 | 62 | 1004.6 |
| 20260509213034 | 70 | 153 | 0.9 | 4.3 | 0.00 | 0.40 | 0.17 | 59 | 1004.5 |
| 20260509211532 | 71 | 153 | 0.9 | 5.2 | 0.00 | 0.40 | 0.17 | 60 | 1004.7 |
| 20260509210030 | 72 | 153 | 0.9 | 8.7 | 0.00 | 0.45 | 0.17 | 59 | 1005.0 |
| 20260509204529 | 72 | 153 | 0.9 | 5.2 | 0.00 | 0.45 | 0.17 | 60 | 1005.2 |
| 20260509203030 | 71 | 153 | 0.0 | 4.3 | 0.00 | 0.45 | 0.17 | 62 | 1005.4 |
| 20260509201526 | 72 | 153 | 0.9 | 8.7 | 0.00 | 0.45 | 0.17 | 61 | 1005.5 |
| 20260509200023 | 72 | 153 | 0.9 | 5.2 | 0.00 | 0.45 | 0.17 | 62 | 1005.8 |
| 20260509194521 | 71 | 153 | 1.7 | 7.0 | 0.00 | 0.45 | 0.17 | 61 | 1006.1 |
| 20260509193019 | 70 | 154 | 0.9 | 5.2 | 0.00 | 0.45 | 0.17 | 64 | 1006.3 |
| 20260509191516 | 69 | 154 | 0.9 | 3.5 | 0.00 | 0.45 | 0.17 | 61 | 1006.6 |
| 20260509190022 | 69 | 154 | 1.7 | 4.3 | 0.00 | 0.45 | 0.17 | 62 | 1006.7 |
| 20260509184526 | 69 | 154 | 0.9 | 7.0 | 0.00 | 0.45 | 0.17 | 63 | 1006.7 |
| 20260509183020 | 69 | 153 | 0.9 | 5.2 | 0.00 | 0.45 | 0.17 | 63 | 1006.8 |
| 20260509181513 | 71 | 154 | 0.0 | 4.3 | 0.00 | 0.45 | 0.17 | 62 | 1006.9 |
| 20260509180009 | 69 | 154 | 0.9 | 4.3 | 0.00 | 0.48 | 0.17 | 63 | 1006.9 |
| 20260509174509 | 69 | 154 | 1.7 | 4.3 | 0.00 | 0.48 | 0.17 | 63 | 1007.0 |
| 20260509173011 | 69 | 154 | 0.0 | 3.5 | 0.00 | 0.48 | 0.17 | 64 | 1007.0 |
| 20260509171505 | 68 | 154 | 0.9 | 4.3 | 0.00 | 0.48 | 0.17 | 66 | 1006.9 |
| 20260509164557 | 66 | 154 | 0.9 | 4.3 | 0.00 | 0.48 | 0.17 | 66 | 1007.2 |
| 20260509163059 | 64 | 153 | 0.0 | 3.5 | 0.00 | 0.48 | 0.17 | 70 | 1007.4 |
| 20260509161555 | 65 | 154 | 0.0 | 1.7 | 0.00 | 0.48 | 0.17 | 70 | 1007.5 |
| 20260509160049 | 63 | 154 | 0.9 | 4.3 | 0.00 | 0.48 | 0.17 | 74 | 1007.5 |
| 20260509154546 | 62 | 154 | 0.0 | 4.3 | 0.00 | 0.48 | 0.17 | 77 | 1007.6 |
| 20260509153046 | 61 | 154 | 0.9 | 3.5 | 0.00 | 0.48 | 0.17 | 80 | 1007.4 |
| 20260509151539 | 60 | 154 | 0.0 | 3.5 | 0.00 | 0.48 | 0.17 | 87 | 1007.4 |
| 20260509150037 | 58 | 154 | 0.0 | 1.7 | 0.00 | 0.48 | 0.17 | 89 | 1007.4 |
| 20260509144537 | 58 | 154 | 0.0 | 1.7 | 0.00 | 0.48 | 0.17 | 94 | 1007.4 |
| 20260509143031 | 56 | 154 | 0.0 | 1.7 | 0.00 | 0.48 | 0.17 | 95 | 1007.4 |
| 20260509141534 | 55 | 154 | 0.0 | 0.9 | 0.00 | 0.48 | 0.17 | 95 | 1007.5 |
| 20260509140033 | 55 | 154 | 0.0 | 0.9 | 0.00 | 0.48 | 0.17 | 95 | 1007.6 |
| 20260509134530 | 54 | 154 | 0.0 | 0.0 | 0.00 | 0.48 | 0.17 | 95 | 1007.6 |
| 20260509133027 | 54 | 154 | 0.0 | 0.9 | 0.00 | 0.48 | 0.17 | 95 | 1007.7 |
| 20260509131519 | 53 | 154 | 0.0 | 0.0 | 0.00 | 0.48 | 0.17 | 95 | 1007.6 |
| 20260509130033 | 53 | 154 | 0.0 | 0.9 | 0.00 | 0.48 | 0.17 | 95 | 1007.8 |
| 20260509124527 | 53 | 154 | 0.0 | 0.0 | 0.00 | 0.48 | 0.17 | 95 | 1008.0 |
| 20260509123025 | 53 | 153 | 0.0 | 0.0 | 0.00 | 0.48 | 0.17 | 95 | 1008.0 |
| 20260509121520 | 52 | 154 | 0.0 | 0.0 | 0.00 | 0.48 | 0.17 | 95 | 1008.1 |
| 20260509120013 | 52 | 154 | 0.0 | 0.0 | 0.00 | 0.48 | 0.17 | 95 | 1008.1 |
| 20260509114509 | 0 | 0.0 | 0.0 | 0.00 | 0.48 | 0.17 | 1008.2 | ||
| 20260509113006 | 0 | 0.0 | 0.0 | 0.00 | 0.48 | 0.17 | 1008.2 | ||
| 20260509111501 | 0 | 0.0 | 0.0 | 0.00 | 0.48 | 0.17 | 1007.9 | ||
| 20260509110106 | 0 | 0.0 | 0.0 | 0.00 | 0.49 | 0.17 | 1007.9 |